STARLINK-1995 (47590 NORAD) Tracking and Keplerian Element Data

This shows tracking and keplerian element data for the satellite.

Feedback or suggestion? Click here.




ElementValue
Catalog47590
NameSTARLINK-1995
Epoch Orbit403
Epoch Day56.91667824
Epoch Year2021
RAAN17.6646
Inclination53.0536
Eccentricity0.0001328
Argument of Perigee83.4536
Mean Anonmoly272.5623
Mean Motion15.62764887
Decay Rate-0.0007553
L11 47590U 21009AU 21056.91667824 -.00075530 00000-0 -82635-3 0 9993
L22 47590 53.0536 17.6646 0001328 83.4536 272.5623 15.62764887 4030

Live tracking and technical data element details for STARLINK-1995 (NORAD 47590). STARLINK-1995 can be tracked NOW for your location showing map with azimuth and elevation plus other details from your city location.

Track the satellite on the map from your city or location and see movement details for azimuth, elevation, latitude, longitude, range, height, and movement on the map or in text.







IsCatalogInMostPopularTable: catalog: 47590, numindb: 1
Update: records affected: 1



GetName: 47590 STARLINK-1995

Hit Count: updated at: Fri, 26 Feb 2021 10:36:46 GMT